Orient Glider Airport

Jump to: basic info | weather | comments

Related pages: nearby airports | nearby navaids | notams | map

Basic information (top)

Codes: FAOI
Location: lon -26.039400, lat 27.595600, elev 5,102 ft / 1,555 m msl
Status: small_airport

Weather (top)

Current conditions for Lanseria Airport 19nm (35km) ENE (rec'd 2014/09/23 22:00Z):

FALA 232200Z AUTO 04010KT //// // 18/01 Q1028

Airport forecast for Lanseria Airport 19nm (35km) ENE (rec'd 2014/09/22 00:00Z):

TAF FALA 222200Z 2300/2324 VRB02KT CAVOK 
      BECMG 2307/2309 34010KT 
      BECMG 2316/2318 VRB02KT TX26/2313ZTN11/2304Z

Latest comments (top)

Runway Orientation and Airfield Frequency: Runway 36/18 (Main) Runway 11/29 Airfi ... [read]

More... (top)

See also NOTAMs and nearby airports and navaids, or visit the Orient Glider Airport page at the main OurAirports website..